User: anonymous   Login
Location: La Vergne
(36.0160°N, 86.5820°W)
Time: 21:12:43
(UTC-06:00)
Language:

Cosmos 1703 Rocket - Orbit

View from above orbital plane
View from above orbital plane
View from above satellite
View from above satellite

Ground track
Ground track

The orbit data is extracted from the following two-line orbital elements,

1 16263U 85108B   16039.12336573  .00000277  00000-0  31197-4 0  9990
2 16263  82.5019 218.7054 0020257 174.4147 326.4723 14.82879746631010
Epoch (UTC): 08 February 2016 02:57:38
Eccentricity: 0.0020257
inclination: 82.5019°
perigee height: 606 km
apogee height: 634 km
right ascension of ascending node: 218.7054°
argument of perigee: 174.4147°
revolutions per day: 14.82879746
mean anomaly at epoch: 326.4723°
orbit number at epoch: 63101

The dashed part of the orbit path shows where the satellite is in the earth's shadow,  

DLR